Location: Chantarel
(45.1638°N, 1.7873°E)
Time: 14:19:01
(UTC+00:00)

Gbstr 26 Del rocket - Pass Details

Date: 03 March 2021
Orbit: 492 x 1264 km, 51.8° (Epoch: 15 April)

Event Time Altitude Azimuth Distance (km) Brightness Sun altitude
Rises 18:06:12 0° 264° (W) 2,702 9.5 -4.9°
Reaches altitude 10° 18:08:20 10° 271° (W) 1,880 7.4 -5.3°
Maximum altitude 18:12:26 47° 345° (NNW) 861 3.9 -6.0°
Drops below altitude 10° 18:17:26 10° 60° (ENE) 2,278 5.4 -6.9°
Enters shadow 18:18:33 - 63° (ENE) 2,700 5.8 -7.1°
